| time (UTC) | temp F | wind direction | speed MPH | gust MPH | rain 1hr in | rain 24hr in | rain mn in | humidity % | barometer mb |
| 20260831172455 | 91 | 148 | 5.0 | 13.0 | 0.00 | 0.00 | 0.00 | 62 | 1019.4 |
| 20260831171956 | 91 | 146 | 5.0 | 13.0 | 0.00 | 0.00 | 0.00 | 63 | 1019.5 |
| 20260831171455 | 91 | 130 | 4.0 | 13.0 | 0.00 | 0.00 | 0.00 | 64 | 1019.4 |
| 20260831171221 | 90 | 192 | 5.0 | 9.0 | 0.00 | 0.00 | 0.00 | 67 | 1019.6 |
| 20260831170455 | 90 | 228 | 4.0 | 9.0 | 0.00 | 0.00 | 0.00 | 66 | 1019.5 |
| 20260831170216 | 90 | 213 | 4.0 | 11.0 | 0.00 | 0.00 | 0.00 | 67 | 1019.5 |
| 20260831165455 | 90 | 188 | 4.0 | 11.0 | 0.00 | 0.00 | 0.00 | 67 | 1019.4 |
| 20260831164955 | 90 | 123 | 4.0 | 10.0 | 0.00 | 0.00 | 0.00 | 67 | 1019.5 |
| 20260831164455 | 89 | 161 | 4.0 | 10.0 | 0.00 | 0.00 | 0.00 | 66 | 1019.5 |
| 20260831163955 | 90 | 98 | 4.0 | 10.0 | 0.00 | 0.00 | 0.00 | 70 | 1019.6 |
| 20260831163456 | 89 | 130 | 4.0 | 9.0 | 0.00 | 0.00 | 0.00 | 70 | 1019.6 |
| 20260831162955 | 89 | 184 | 5.0 | 11.0 | 0.00 | 0.00 | 0.00 | 71 | 1019.6 |
| 20260831162941 | 88 | 156 | 6.0 | 11.0 | 0.00 | 0.00 | 0.00 | 71 | 1019.5 |
| 20260831161956 | 88 | 134 | 6.0 | 12.0 | 0.00 | 0.00 | 0.00 | 69 | 1019.5 |
| 20260831161455 | 88 | 151 | 6.0 | 12.0 | 0.00 | 0.00 | 0.00 | 72 | 1019.5 |
| 20260831160955 | 88 | 177 | 5.0 | 11.0 | 0.00 | 0.00 | 0.00 | 71 | 1019.6 |
| 20260831160451 | 88 | 98 | 6.0 | 13.0 | 0.00 | 0.00 | 0.00 | 73 | 1019.6 |
| 20260831155950 | 87 | 105 | 5.0 | 13.0 | 0.00 | 0.00 | 0.00 | 72 | 1019.6 |
| 20260831155450 | 87 | 119 | 4.0 | 10.0 | 0.00 | 0.00 | 0.00 | 75 | 1019.6 |
| 20260831155206 | 86 | 134 | 3.0 | 9.0 | 0.00 | 0.00 | 0.00 | 77 | 1019.6 |
| 20260831154447 | 85 | 173 | 3.0 | 9.0 | 0.00 | 0.00 | 0.00 | 77 | 1019.5 |
| 20260831154210 | 85 | 217 | 3.0 | 9.0 | 0.00 | 0.00 | 0.00 | 78 | 1019.3 |
| 20260831153443 | 85 | 246 | 3.0 | 9.0 | 0.00 | 0.00 | 0.00 | 79 | 1019.3 |
| 20260831152942 | 85 | 213 | 4.0 | 9.0 | 0.00 | 0.00 | 0.00 | 78 | 1019.4 |
| 20260831152439 | 85 | 214 | 4.0 | 10.0 | 0.00 | 0.00 | 0.00 | 80 | 1019.4 |
| 20260831151937 | 84 | 182 | 4.0 | 10.0 | 0.00 | 0.00 | 0.00 | 79 | 1019.4 |
| 20260831151435 | 84 | 186 | 4.0 | 9.0 | 0.00 | 0.00 | 0.00 | 79 | 1019.3 |
| 20260831150934 | 84 | 213 | 4.0 | 10.0 | 0.00 | 0.00 | 0.00 | 80 | 1019.3 |
| 20260831150916 | 84 | 145 | 5.0 | 12.0 | 0.00 | 0.00 | 0.00 | 79 | 1019.3 |
| 20260831145930 | 84 | 158 | 5.0 | 12.0 | 0.00 | 0.00 | 0.00 | 80 | 1019.1 |
| 20260831145431 | 84 | 172 | 5.0 | 12.0 | 0.00 | 0.00 | 0.00 | 81 | 1019.1 |
| 20260831144931 | 84 | 198 | 5.0 | 12.0 | 0.00 | 0.00 | 0.00 | 81 | 1019.0 |
| 20260831144654 | 84 | 158 | 5.0 | 10.0 | 0.00 | 0.00 | 0.00 | 82 | 1019.0 |
| 20260831144416 | 83 | 183 | 4.0 | 10.0 | 0.00 | 0.00 | 0.00 | 83 | 1019.0 |
| 20260831143649 | 82 | 154 | 4.0 | 10.0 | 0.00 | 0.00 | 0.00 | 84 | 1018.9 |
| 20260831143638 | 83 | 148 | 4.0 | 9.0 | 0.00 | 0.00 | 0.00 | 84 | 1018.9 |
| 20260831142430 | 82 | 198 | 4.0 | 10.0 | 0.00 | 0.00 | 0.00 | 85 | 1018.9 |
| 20260831141931 | 82 | 203 | 3.0 | 8.0 | 0.00 | 0.00 | 0.00 | 85 | 1018.9 |
| 20260831141431 | 82 | 213 | 3.0 | 8.0 | 0.00 | 0.00 | 0.00 | 86 | 1018.9 |
| 20260831140931 | 81 | 178 | 4.0 | 10.0 | 0.00 | 0.00 | 0.00 | 87 | 1018.9 |
| 20260831140430 | 81 | 179 | 3.0 | 10.0 | 0.00 | 0.00 | 0.00 | 88 | 1018.8 |
| 20260831140155 | 81 | 182 | 3.0 | 7.0 | 0.00 | 0.00 | 0.00 | 89 | 1018.7 |
| 20260831135430 | 80 | 188 | 3.0 | 9.0 | 0.00 | 0.00 | 0.00 | 89 | 1018.6 |
| 20260831134932 | 80 | 144 | 3.0 | 10.0 | 0.00 | 0.00 | 0.00 | 90 | 1018.6 |
| 20260831134430 | 80 | 179 | 3.0 | 10.0 | 0.00 | 0.00 | 0.00 | 90 | 1018.6 |
| 20260831133930 | 79 | 199 | 2.0 | 6.0 | 0.00 | 0.00 | 0.00 | 91 | 1018.6 |
| 20260831133431 | 79 | 165 | 3.0 | 7.0 | 0.00 | 0.00 | 0.00 | 92 | 1018.6 |
| 20260831132931 | 79 | 175 | 3.0 | 7.0 | 0.00 | 0.00 | 0.00 | 92 | 1018.6 |
| 20260831132431 | 78 | 183 | 2.0 | 7.0 | 0.00 | 0.00 | 0.00 | 93 | 1018.6 |
| 20260831131931 | 78 | 178 | 2.0 | 7.0 | 0.00 | 0.00 | 0.00 | 94 | 1018.5 |
| 20260831131431 | 77 | 186 | 3.0 | 7.0 | 0.00 | 0.00 | 0.00 | 94 | 1018.5 |
| 20260831130931 | 77 | 173 | 3.0 | 7.0 | 0.00 | 0.00 | 0.00 | 94 | 1018.4 |
| 20260831130430 | 77 | 194 | 1.0 | 5.0 | 0.00 | 0.00 | 0.00 | 95 | 1018.4 |
| 20260831125930 | 76 | 178 | 0.0 | 3.0 | 0.00 | 0.00 | 0.00 | 95 | 1018.4 |
| 20260831125913 | 76 | 177 | 0.0 | 2.0 | 0.00 | 0.00 | 0.00 | 95 | 1018.3 |
| 20260831124919 | 76 | 177 | 0.0 | 1.0 | 0.00 | 0.00 | 0.00 | 95 | 1018.3 |
| 20260831124414 | 75 | 177 | 0.0 | 1.0 | 0.00 | 0.00 | 0.00 | 95 | 1018.3 |
| 20260831123915 | 75 | 177 | 0.0 | 0.0 | 0.00 | 0.00 | 0.00 | 95 | 1018.2 |
| 20260831123414 | 75 | 177 | 0.0 | 2.0 | 0.00 | 0.00 | 0.00 | 94 | 1018.2 |
| 20260831123135 | 75 | 177 | 0.0 | 2.0 | 0.00 | 0.00 | 0.00 | 94 | 1018.1 |
| 20260831122639 | 75 | 177 | 0.0 | 2.0 | 0.00 | 0.00 | 0.00 | 94 | 1018.0 |
| 20260831121912 | 75 | 177 | 1.0 | 2.0 | 0.00 | 0.00 | 0.00 | 94 | 1018.1 |
| 20260831121411 | 75 | 177 | 1.0 | 2.0 | 0.00 | 0.00 | 0.00 | 94 | 1018.1 |
| 20260831120909 | 75 | 177 | 1.0 | 4.0 | 0.00 | 0.00 | 0.00 | 94 | 1018.1 |
| 20260831120627 | 76 | 177 | 1.0 | 5.0 | 0.00 | 0.00 | 0.00 | 94 | 1018.0 |
| 20260831115908 | 76 | 177 | 1.0 | 6.0 | 0.00 | 0.00 | 0.00 | 94 | 1018.0 |
| 20260831115406 | 76 | 180 | 1.0 | 6.0 | 0.00 | 0.00 | 0.00 | 94 | 1018.0 |
| 20260831114904 | 76 | 175 | 2.0 | 6.0 | 0.00 | 0.00 | 0.00 | 94 | 1017.8 |
| 20260831114630 | 76 | 175 | 3.0 | 6.0 | 0.00 | 0.00 | 0.00 | 93 | 1017.9 |
| 20260831113904 | 76 | 168 | 3.0 | 5.0 | 0.00 | 0.00 | 0.00 | 93 | 1017.9 |
| 20260831113404 | 76 | 0 | 2.0 | 6.0 | 0.00 | 0.00 | 0.00 | 93 | 1017.8 |
| 20260831113123 | 76 | 185 | 2.0 | 6.0 | 0.00 | 0.00 | 0.00 | 93 | 1017.7 |
| 20260831112627 | 76 | 184 | 3.0 | 8.0 | 0.00 | 0.00 | 0.00 | 93 | 1017.8 |
| 20260831111904 | 76 | 184 | 3.0 | 8.0 | 0.00 | 0.00 | 0.00 | 93 | 1017.8 |
| 20260831111400 | 76 | 190 | 3.0 | 8.0 | 0.00 | 0.00 | 0.00 | 93 | 1017.8 |
| 20260831111115 | 76 | 171 | 3.0 | 8.0 | 0.00 | 0.00 | 0.00 | 93 | 1017.8 |
| 20260831110615 | 76 | 190 | 3.0 | 7.0 | 0.00 | 0.00 | 0.00 | 93 | 1017.7 |
| 20260831105341 | 76 | 198 | 4.0 | 8.0 | 0.00 | 0.00 | 0.00 | 92 | 1017.7 |
| 20260831104840 | 76 | 182 | 4.0 | 9.0 | 0.00 | 0.00 | 0.00 | 92 | 1017.9 |
| 20260831104340 | 76 | 167 | 4.0 | 9.0 | 0.00 | 0.00 | 0.00 | 92 | 1017.9 |
| 20260831103840 | 76 | 171 | 5.0 | 11.0 | 0.00 | 0.00 | 0.00 | 92 | 1017.8 |
| 20260831103340 | 77 | 170 | 5.0 | 11.0 | 0.00 | 0.00 | 0.00 | 92 | 1017.8 |
| 20260831103058 | 77 | 194 | 4.0 | 9.0 | 0.00 | 0.00 | 0.00 | 92 | 1017.8 |
| 20260831102339 | 77 | 193 | 4.0 | 12.0 | 0.00 | 0.00 | 0.00 | 92 | 1017.9 |
| 20260831101837 | 77 | 168 | 4.0 | 12.0 | 0.00 | 0.00 | 0.00 | 92 | 1017.9 |
| 20260831101336 | 77 | 201 | 3.0 | 9.0 | 0.00 | 0.00 | 0.00 | 92 | 1017.9 |
| 20260831100834 | 77 | 163 | 4.0 | 9.0 | 0.00 | 0.00 | 0.00 | 92 | 1017.9 |
| 20260831100334 | 77 | 188 | 4.0 | 9.0 | 0.00 | 0.00 | 0.00 | 92 | 1017.9 |
| 20260831095834 | 77 | 188 | 4.0 | 9.0 | 0.00 | 0.00 | 0.00 | 91 | 1017.8 |
| 20260831095335 | 77 | 173 | 4.0 | 10.0 | 0.00 | 0.00 | 0.00 | 91 | 1017.8 |
| 20260831095059 | 77 | 184 | 4.0 | 9.0 | 0.00 | 0.00 | 0.00 | 91 | 1017.7 |
| 20260831094334 | 77 | 158 | 4.0 | 9.0 | 0.00 | 0.00 | 0.00 | 91 | 1017.8 |
| 20260831094319 | 77 | 197 | 4.0 | 9.0 | 0.00 | 0.00 | 0.00 | 90 | 1017.8 |
| 20260831093334 | 77 | 166 | 4.0 | 9.0 | 0.00 | 0.00 | 0.00 | 90 | 1017.8 |
| 20260831093055 | 77 | 173 | 3.0 | 9.0 | 0.00 | 0.00 | 0.00 | 90 | 1017.8 |
| 20260831092331 | 77 | 200 | 4.0 | 9.0 | 0.00 | 0.00 | 0.00 | 89 | 1017.7 |
| 20260831091830 | 77 | 183 | 4.0 | 9.0 | 0.00 | 0.00 | 0.00 | 89 | 1017.8 |
| 20260831091551 | 77 | 184 | 4.0 | 8.0 | 0.00 | 0.00 | 0.00 | 89 | 1017.8 |
| 20260831090831 | 78 | 217 | 3.0 | 9.0 | 0.00 | 0.00 | 0.00 | 88 | 1017.7 |
| 20260831090330 | 78 | 188 | 3.0 | 9.0 | 0.00 | 0.00 | 0.00 | 88 | 1017.7 |
| 20260831085330 | 78 | 188 | 3.0 | 11.0 | 0.00 | 0.00 | 0.00 | 87 | 1017.7 |
| 20260831084830 | 78 | 184 | 3.0 | 9.0 | 0.00 | 0.00 | 0.00 | 86 | 1017.8 |
| 20260831084326 | 78 | 157 | 4.0 | 9.0 | 0.00 | 0.00 | 0.00 | 86 | 1017.8 |
| 20260831083826 | 78 | 165 | 4.0 | 9.0 | 0.00 | 0.00 | 0.00 | 85 | 1017.8 |
| 20260831083327 | 78 | 182 | 3.0 | 9.0 | 0.00 | 0.00 | 0.00 | 85 | 1017.8 |
| 20260831082826 | 78 | 171 | 4.0 | 9.0 | 0.00 | 0.00 | 0.00 | 85 | 1017.8 |
| 20260831082325 | 78 | 184 | 5.0 | 11.0 | 0.00 | 0.00 | 0.00 | 84 | 1017.8 |
| 20260831081825 | 78 | 165 | 4.0 | 13.0 | 0.00 | 0.00 | 0.00 | 84 | 1017.7 |
| 20260831081327 | 79 | 187 | 3.0 | 13.0 | 0.00 | 0.00 | 0.00 | 84 | 1017.7 |
| 20260831081310 | 79 | 205 | 4.0 | 13.0 | 0.00 | 0.00 | 0.00 | 83 | 1017.7 |
| 20260831080326 | 79 | 202 | 5.0 | 13.0 | 0.00 | 0.00 | 0.00 | 83 | 1017.8 |
| 20260831075826 | 79 | 191 | 5.0 | 13.0 | 0.00 | 0.00 | 0.00 | 83 | 1017.6 |
| 20260831075326 | 79 | 187 | 4.0 | 11.0 | 0.00 | 0.00 | 0.00 | 83 | 1017.6 |
| 20260831074826 | 79 | 175 | 4.0 | 8.0 | 0.00 | 0.00 | 0.00 | 83 | 1017.5 |
| 20260831074324 | 79 | 0 | 4.0 | 8.0 | 0.00 | 0.00 | 0.00 | 83 | 1017.6 |
| 20260831074053 | 79 | 0 | 4.0 | 9.0 | 0.00 | 0.00 | 0.00 | 82 | 1017.6 |
| 20260831073323 | 79 | 160 | 4.0 | 9.0 | 0.00 | 0.00 | 0.00 | 82 | 1017.7 |
| 20260831072822 | 80 | 176 | 4.0 | 10.0 | 0.00 | 0.00 | 0.00 | 82 | 1017.7 |
| 20260831072320 | 80 | 173 | 4.0 | 10.0 | 0.00 | 0.00 | 0.00 | 82 | 1017.7 |
| 20260831071820 | 80 | 178 | 4.0 | 10.0 | 0.00 | 0.00 | 0.00 | 81 | 1017.8 |
| 20260831071320 | 80 | 202 | 4.0 | 8.0 | 0.00 | 0.00 | 0.00 | 81 | 1017.8 |
| 20260831070818 | 80 | 0 | 4.0 | 10.0 | 0.00 | 0.00 | 0.00 | 81 | 1017.9 |
| 20260831070808 | 80 | 202 | 4.0 | 12.0 | 0.00 | 0.00 | 0.00 | 81 | 1017.8 |
| 20260831070043 | 80 | 173 | 4.0 | 12.0 | 0.00 | 0.00 | 0.00 | 81 | 1017.8 |
| 20260831065316 | 80 | 171 | 4.0 | 9.0 | 0.00 | 0.00 | 0.00 | 81 | 1017.8 |
| 20260831065040 | 80 | 162 | 5.0 | 9.0 | 0.00 | 0.00 | 0.00 | 81 | 1017.8 |
| 20260831064314 | 80 | 161 | 4.0 | 9.0 | 0.00 | 0.00 | 0.00 | 81 | 1017.8 |
| 20260831063814 | 80 | 0 | 3.0 | 9.0 | 0.00 | 0.00 | 0.00 | 80 | 1017.9 |
| 20260831063312 | 80 | 162 | 3.0 | 6.0 | 0.00 | 0.00 | 0.00 | 80 | 1017.8 |
| 20260831062810 | 81 | 169 | 2.0 | 6.0 | 0.00 | 0.00 | 0.00 | 80 | 1017.9 |
| 20260831062308 | 81 | 171 | 2.0 | 5.0 | 0.00 | 0.00 | 0.00 | 79 | 1018.0 |
| 20260831061807 | 81 | 167 | 2.0 | 5.0 | 0.00 | 0.00 | 0.00 | 79 | 1017.9 |
| 20260831061305 | 81 | 166 | 3.0 | 7.0 | 0.00 | 0.00 | 0.00 | 78 | 1017.9 |
| 20260831060805 | 82 | 190 | 3.0 | 7.0 | 0.00 | 0.00 | 0.00 | 78 | 1017.8 |
| 20260831060531 | 82 | 167 | 3.0 | 7.0 | 0.00 | 0.00 | 0.00 | 77 | 1017.8 |
| 20260831055802 | 82 | 161 | 3.0 | 7.0 | 0.00 | 0.00 | 0.00 | 77 | 1017.8 |
| 20260831055530 | 82 | 174 | 3.0 | 6.0 | 0.00 | 0.00 | 0.00 | 76 | 1017.7 |
| 20260831055030 | 82 | 152 | 3.0 | 6.0 | 0.00 | 0.00 | 0.00 | 76 | 1017.7 |
| 20260831054303 | 83 | 0 | 3.0 | 6.0 | 0.00 | 0.00 | 0.00 | 75 | 1017.7 |
| 20260831054028 | 83 | 178 | 3.0 | 7.0 | 0.00 | 0.00 | 0.00 | 75 | 1017.7 |
| 20260831053533 | 83 | 180 | 3.0 | 7.0 | 0.00 | 0.00 | 0.00 | 75 | 1017.7 |
| 20260831052803 | 83 | 178 | 3.0 | 7.0 | 0.00 | 0.00 | 0.00 | 75 | 1017.7 |
| 20260831052306 | 83 | 175 | 3.0 | 7.0 | 0.00 | 0.00 | 0.00 | 74 | 1017.6 |
| 20260831051802 | 83 | 168 | 4.0 | 9.0 | 0.00 | 0.00 | 0.00 | 73 | 1017.5 |
| 20260831051304 | 84 | 171 | 4.0 | 9.0 | 0.00 | 0.00 | 0.00 | 73 | 1017.6 |
| 20260831050802 | 84 | 178 | 4.0 | 8.0 | 0.00 | 0.00 | 0.00 | 73 | 1017.5 |
| 20260831050303 | 84 | 184 | 4.0 | 10.0 | 0.00 | 0.00 | 0.00 | 72 | 1017.5 |
| 20260831045802 | 84 | 153 | 5.0 | 10.0 | 0.00 | 0.00 | 0.00 | 72 | 1017.6 |
| 20260831045306 | 84 | 168 | 5.0 | 11.0 | 0.00 | 0.00 | 0.00 | 71 | 1017.5 |
| 20260831044803 | 85 | 159 | 5.0 | 11.0 | 0.00 | 0.00 | 0.00 | 71 | 1017.5 |
| 20260831044303 | 85 | 175 | 5.0 | 12.0 | 0.00 | 0.00 | 0.00 | 70 | 1017.5 |
| 20260831044028 | 85 | 179 | 5.0 | 12.0 | 0.00 | 0.00 | 0.00 | 70 | 1017.5 |
| 20260831043303 | 85 | 174 | 5.0 | 11.0 | 0.00 | 0.00 | 0.00 | 70 | 1017.5 |
| 20260831042802 | 85 | 149 | 5.0 | 11.0 | 0.00 | 0.00 | 0.00 | 70 | 1017.5 |
| 20260831042306 | 85 | 152 | 6.0 | 12.0 | 0.00 | 0.00 | 0.00 | 69 | 1017.5 |
| 20260831041803 | 85 | 161 | 7.0 | 12.0 | 0.00 | 0.00 | 0.00 | 69 | 1017.4 |
| 20260831041748 | 85 | 153 | 7.0 | 12.0 | 0.00 | 0.00 | 0.00 | 69 | 1017.4 |
| 20260831040803 | 85 | 124 | 5.0 | 12.0 | 0.00 | 0.00 | 0.00 | 69 | 1017.3 |
| 20260831040525 | 85 | 146 | 5.0 | 11.0 | 0.00 | 0.00 | 0.00 | 69 | 1017.2 |
| 20260831035808 | 86 | 199 | 6.0 | 12.0 | 0.00 | 0.00 | 0.00 | 69 | 1017.2 |
| 20260831035307 | 86 | 154 | 6.0 | 12.0 | 0.00 | 0.00 | 0.00 | 68 | 1017.2 |
| 20260831034802 | 86 | 137 | 6.0 | 15.0 | 0.00 | 0.00 | 0.00 | 68 | 1017.1 |
| 20260831034256 | 86 | 146 | 7.0 | 15.0 | 0.00 | 0.00 | 0.00 | 68 | 1017.0 |
| 20260831033755 | 86 | 155 | 7.0 | 13.0 | 0.00 | 0.00 | 0.00 | 68 | 1017.0 |
| 20260831033255 | 87 | 119 | 8.0 | 15.0 | 0.00 | 0.00 | 0.00 | 68 | 1016.9 |
| 20260831032754 | 87 | 174 | 7.0 | 15.0 | 0.00 | 0.00 | 0.00 | 67 | 1016.9 |
| 20260831032518 | 87 | 149 | 8.0 | 15.0 | 0.00 | 0.00 | 0.00 | 68 | 1016.8 |
| 20260831032017 | 87 | 143 | 8.0 | 15.0 | 0.00 | 0.00 | 0.00 | 68 | 1016.7 |
| 20260831031514 | 87 | 162 | 7.0 | 14.0 | 0.00 | 0.00 | 0.00 | 68 | 1016.6 |
| 20260831031018 | 87 | 173 | 6.0 | 12.0 | 0.00 | 0.00 | 0.00 | 67 | 1016.6 |
| 20260831030254 | 87 | 165 | 6.0 | 14.0 | 0.00 | 0.00 | 0.00 | 66 | 1016.5 |
| 20260831025754 | 87 | 134 | 7.0 | 14.0 | 0.00 | 0.00 | 0.00 | 65 | 1016.3 |
| 20260831025253 | 87 | 189 | 7.0 | 14.0 | 0.00 | 0.00 | 0.00 | 64 | 1016.1 |
| 20260831024752 | 87 | 134 | 7.0 | 14.0 | 0.00 | 0.00 | 0.00 | 63 | 1016.1 |
| 20260831024248 | 87 | 163 | 7.0 | 14.0 | 0.00 | 0.00 | 0.00 | 61 | 1016.1 |
| 20260831023748 | 86 | 123 | 6.0 | 14.0 | 0.00 | 0.00 | 0.00 | 62 | 1016.0 |
| 20260831023248 | 85 | 148 | 4.0 | 9.0 | 0.00 | 0.00 | 0.00 | 62 | 1015.8 |
| 20260831022748 | 85 | 128 | 3.0 | 4.0 | 0.00 | 0.00 | 0.00 | 62 | 1015.6 |
| 20260831022248 | 86 | 127 | 2.0 | 4.0 | 0.00 | 0.00 | 0.00 | 62 | 1015.6 |
| 20260831021748 | 86 | 127 | 2.0 | 4.0 | 0.00 | 0.00 | 0.00 | 61 | 1015.6 |
| 20260831021248 | 86 | 127 | 2.0 | 4.0 | 0.00 | 0.00 | 0.00 | 61 | 1015.5 |
| 20260831021010 | 86 | 127 | 2.0 | 6.0 | 0.00 | 0.00 | 0.00 | 61 | 1015.5 |
| 20260831020249 | 86 | 126 | 2.0 | 6.0 | 0.00 | 0.00 | 0.00 | 61 | 1015.5 |
| 20260831015749 | 87 | 126 | 3.0 | 6.0 | 0.00 | 0.00 | 0.00 | 60 | 1015.4 |
| 20260831015248 | 87 | 127 | 3.0 | 6.0 | 0.00 | 0.00 | 0.00 | 61 | 1015.3 |
| 20260831015007 | 87 | 127 | 3.0 | 5.0 | 0.00 | 0.00 | 0.00 | 60 | 1015.4 |
| 20260831014248 | 87 | 115 | 2.0 | 4.0 | 0.00 | 0.00 | 0.00 | 60 | 1015.5 |
| 20260831014007 | 87 | 119 | 2.0 | 4.0 | 0.00 | 0.00 | 0.00 | 59 | 1015.3 |
| 20260831013248 | 87 | 119 | 2.0 | 4.0 | 0.00 | 0.00 | 0.00 | 59 | 1015.2 |
| 20260831012748 | 88 | 116 | 2.0 | 4.0 | 0.00 | 0.00 | 0.00 | 59 | 1015.1 |
| 20260831012248 | 88 | 115 | 2.0 | 4.0 | 0.00 | 0.00 | 0.00 | 59 | 1015.1 |
| 20260831011751 | 88 | 115 | 3.0 | 6.0 | 0.00 | 0.00 | 0.00 | 58 | 1015.0 |
| 20260831011248 | 89 | 123 | 3.0 | 6.0 | 0.00 | 0.00 | 0.00 | 58 | 1015.1 |
| 20260831010748 | 89 | 117 | 2.0 | 4.0 | 0.00 | 0.00 | 0.00 | 58 | 1015.0 |
| 20260831010508 | 90 | 118 | 2.0 | 4.0 | 0.00 | 0.00 | 0.00 | 57 | 1015.0 |
| 20260831005748 | 90 | 116 | 3.0 | 7.0 | 0.00 | 0.00 | 0.00 | 56 | 1015.0 |
| 20260831005247 | 90 | 114 | 3.0 | 7.0 | 0.00 | 0.00 | 0.00 | 55 | 1015.0 |
| 20260831004747 | 91 | 123 | 4.0 | 9.0 | 0.00 | 0.00 | 0.00 | 56 | 1015.0 |
| 20260831004733 | 91 | 136 | 4.0 | 9.0 | 0.00 | 0.00 | 0.00 | 55 | 1015.0 |
| 20260831004000 | 92 | 96 | 4.0 | 9.0 | 0.00 | 0.00 | 0.00 | 55 | 1015.0 |
| 20260831003240 | 92 | 109 | 5.0 | 10.0 | 0.00 | 0.00 | 0.00 | 54 | 1015.0 |
| 20260831002740 | 92 | 113 | 5.0 | 10.0 | 0.00 | 0.00 | 0.00 | 53 | 1015.0 |
| 20260831002238 | 93 | 115 | 5.0 | 10.0 | 0.00 | 0.00 | 0.00 | 52 | 1015.0 |
| 20260831001738 | 93 | 98 | 4.0 | 10.0 | 0.00 | 0.00 | 0.00 | 52 | 1015.0 |
| 20260831001237 | 93 | 86 | 4.0 | 9.0 | 0.00 | 0.00 | 0.00 | 52 | 1015.0 |
| 20260831000737 | 93 | 139 | 4.0 | 9.0 | 0.00 | 0.00 | 0.00 | 52 | 1015.0 |
| 20260831000500 | 93 | 128 | 4.0 | 9.0 | 0.00 | 0.00 | 0.00 | 51 | 1015.0 |
| 20260830235736 | 94 | 134 | 4.0 | 9.0 | 0.00 | 0.00 | 0.00 | 50 | 1015.0 |
| 20260830235236 | 94 | 179 | 5.0 | 10.0 | 0.00 | 0.00 | 0.00 | 49 | 1015.0 |
| 20260830234959 | 94 | 169 | 4.0 | 10.0 | 0.00 | 0.00 | 0.00 | 49 | 1015.0 |
| 20260830234451 | 95 | 136 | 4.0 | 9.0 | 0.00 | 0.00 | 0.00 | 49 | 1015.1 |
| 20260830233732 | 95 | 165 | 4.0 | 9.0 | 0.00 | 0.00 | 0.00 | 47 | 1015.1 |
| 20260830233452 | 95 | 179 | 4.0 | 9.0 | 0.00 | 0.00 | 0.00 | 46 | 1015.2 |
| 20260830232732 | 95 | 150 | 4.0 | 9.0 | 0.00 | 0.00 | 0.00 | 48 | 1015.2 |
| 20260830232231 | 95 | 121 | 5.0 | 9.0 | 0.00 | 0.00 | 0.00 | 48 | 1015.1 |
| 20260830231731 | 95 | 111 | 6.0 | 11.0 | 0.00 | 0.00 | 0.00 | 49 | 1015.1 |
| 20260830231231 | 95 | 123 | 5.0 | 11.0 | 0.00 | 0.00 | 0.00 | 48 | 1015.0 |
| 20260830230731 | 96 | 125 | 3.0 | 9.0 | 0.00 | 0.00 | 0.00 | 48 | 1015.0 |
| 20260830230450 | 96 | 138 | 4.0 | 9.0 | 0.00 | 0.00 | 0.00 | 49 | 1015.1 |
| 20260830225731 | 96 | 105 | 5.0 | 12.0 | 0.00 | 0.00 | 0.00 | 46 | 1015.1 |
| 20260830225232 | 96 | 153 | 6.0 | 12.0 | 0.00 | 0.00 | 0.00 | 46 | 1015.2 |
| 20260830224732 | 96 | 173 | 5.0 | 12.0 | 0.00 | 0.00 | 0.00 | 48 | 1015.3 |
| 20260830224230 | 96 | 126 | 5.0 | 11.0 | 0.00 | 0.00 | 0.00 | 47 | 1015.3 |
| 20260830223730 | 96 | 0 | 5.0 | 11.0 | 0.00 | 0.00 | 0.00 | 49 | 1015.2 |
| 20260830223455 | 96 | 151 | 4.0 | 11.0 | 0.00 | 0.00 | 0.00 | 49 | 1015.3 |
| 20260830222731 | 96 | 165 | 3.0 | 9.0 | 0.00 | 0.00 | 0.00 | 50 | 1015.3 |
| 20260830222229 | 95 | 154 | 4.0 | 11.0 | 0.00 | 0.00 | 0.00 | 50 | 1015.3 |
| 20260830221723 | 95 | 121 | 4.0 | 11.0 | 0.00 | 0.00 | 0.00 | 51 | 1015.3 |
| 20260830221217 | 96 | 150 | 5.0 | 14.0 | 0.00 | 0.00 | 0.00 | 49 | 1015.3 |
| 20260830220942 | 96 | 136 | 6.0 | 14.0 | 0.00 | 0.00 | 0.00 | 50 | 1015.3 |
| 20260830220434 | 96 | 134 | 7.0 | 14.0 | 0.00 | 0.00 | 0.00 | 51 | 1015.4 |
| 20260830215710 | 96 | 176 | 8.0 | 14.0 | 0.00 | 0.00 | 0.00 | 51 | 1015.3 |
| 20260830215208 | 96 | 0 | 6.0 | 14.0 | 0.00 | 0.00 | 0.00 | 51 | 1015.3 |
| 20260830214933 | 96 | 128 | 5.0 | 14.0 | 0.00 | 0.00 | 0.00 | 50 | 1015.4 |
| 20260830214207 | 96 | 109 | 6.0 | 12.0 | 0.00 | 0.00 | 0.00 | 51 | 1015.4 |
| 20260830213706 | 96 | 111 | 6.0 | 12.0 | 0.00 | 0.00 | 0.00 | 51 | 1015.4 |
| 20260830213204 | 96 | 135 | 5.0 | 12.0 | 0.00 | 0.00 | 0.00 | 51 | 1015.6 |
| 20260830212704 | 96 | 198 | 6.0 | 12.0 | 0.00 | 0.00 | 0.00 | 50 | 1015.5 |
| 20260830212204 | 96 | 131 | 6.0 | 12.0 | 0.00 | 0.00 | 0.00 | 50 | 1015.7 |
| 20260830211703 | 95 | 113 | 6.0 | 12.0 | 0.00 | 0.00 | 0.00 | 50 | 1015.8 |
| 20260830211429 | 96 | 128 | 5.0 | 12.0 | 0.00 | 0.00 | 0.00 | 51 | 1015.9 |
| 20260830211407 | 95 | 126 | 7.0 | 12.0 | 0.00 | 0.00 | 0.00 | 50 | 1016.0 |
| 20260830210203 | 95 | 133 | 5.0 | 11.0 | 0.00 | 0.00 | 0.00 | 52 | 1016.0 |
| 20260830205702 | 95 | 126 | 5.0 | 10.0 | 0.00 | 0.00 | 0.00 | 53 | 1016.1 |
| 20260830205426 | 95 | 85 | 5.0 | 14.0 | 0.00 | 0.00 | 0.00 | 52 | 1016.2 |
| 20260830204935 | 95 | 169 | 5.0 | 14.0 | 0.00 | 0.00 | 0.00 | 55 | 1016.2 |
| 20260830204202 | 95 | 139 | 5.0 | 13.0 | 0.00 | 0.00 | 0.00 | 54 | 1016.3 |
| 20260830203701 | 95 | 137 | 5.0 | 12.0 | 0.00 | 0.00 | 0.00 | 54 | 1016.3 |
| 20260830203201 | 95 | 207 | 5.0 | 12.0 | 0.00 | 0.00 | 0.00 | 53 | 1016.6 |
| 20260830202702 | 95 | 141 | 5.0 | 12.0 | 0.00 | 0.00 | 0.00 | 55 | 1016.6 |
| 20260830202427 | 94 | 188 | 4.0 | 12.0 | 0.00 | 0.00 | 0.00 | 57 | 1016.7 |
| 20260830201702 | 95 | 146 | 5.0 | 16.0 | 0.00 | 0.00 | 0.00 | 56 | 1016.7 |
| 20260830201159 | 95 | 193 | 5.0 | 16.0 | 0.00 | 0.00 | 0.00 | 55 | 1016.8 |
| 20260830200659 | 95 | 153 | 5.0 | 16.0 | 0.00 | 0.00 | 0.00 | 56 | 1016.8 |
| 20260830200200 | 94 | 159 | 5.0 | 16.0 | 0.00 | 0.00 | 0.00 | 57 | 1016.9 |
| 20260830200147 | 94 | 172 | 5.0 | 11.0 | 0.00 | 0.00 | 0.00 | 55 | 1016.9 |
| 20260830195200 | 94 | 0 | 6.0 | 11.0 | 0.00 | 0.00 | 0.00 | 55 | 1017.0 |
| 20260830194659 | 94 | 132 | 4.0 | 11.0 | 0.00 | 0.00 | 0.00 | 57 | 1017.1 |
| 20260830194200 | 94 | 134 | 4.0 | 14.0 | 0.00 | 0.00 | 0.00 | 55 | 1017.2 |
| 20260830193700 | 94 | 188 | 6.0 | 14.0 | 0.00 | 0.00 | 0.00 | 57 | 1017.3 |
| 20260830193200 | 94 | 0 | 7.0 | 14.0 | 0.00 | 0.00 | 0.00 | 55 | 1017.4 |
| 20260830192659 | 94 | 168 | 7.0 | 14.0 | 0.00 | 0.00 | 0.00 | 57 | 1017.5 |
| 20260830192159 | 94 | 131 | 5.0 | 11.0 | 0.00 | 0.00 | 0.00 | 57 | 1017.5 |
| 20260830191700 | 94 | 155 | 5.0 | 11.0 | 0.00 | 0.00 | 0.00 | 59 | 1017.6 |
| 20260830191156 | 93 | 135 | 5.0 | 9.0 | 0.00 | 0.00 | 0.00 | 59 | 1017.6 |
| 20260830190915 | 93 | 174 | 5.0 | 12.0 | 0.00 | 0.00 | 0.00 | 58 | 1017.7 |
| 20260830190155 | 93 | 177 | 6.0 | 12.0 | 0.00 | 0.00 | 0.00 | 59 | 1017.8 |
| 20260830185655 | 93 | 136 | 6.0 | 16.0 | 0.00 | 0.00 | 0.00 | 59 | 1017.8 |
| 20260830185416 | 93 | 146 | 6.0 | 16.0 | 0.00 | 0.00 | 0.00 | 60 | 1018.0 |
| 20260830184656 | 92 | 156 | 6.0 | 14.0 | 0.00 | 0.00 | 0.00 | 59 | 1017.9 |
| 20260830184156 | 92 | 163 | 7.0 | 17.0 | 0.00 | 0.00 | 0.00 | 59 | 1018.1 |
| 20260830183655 | 93 | 107 | 5.0 | 17.0 | 0.00 | 0.00 | 0.00 | 60 | 1018.2 |
| 20260830183155 | 92 | 130 | 4.0 | 9.0 | 0.00 | 0.00 | 0.00 | 62 | 1018.1 |
| 20260830182656 | 93 | 202 | 5.0 | 10.0 | 0.00 | 0.00 | 0.00 | 61 | 1018.3 |
| 20260830182153 | 92 | 156 | 5.0 | 11.0 | 0.00 | 0.00 | 0.00 | 63 | 1018.4 |
| 20260830181653 | 92 | 164 | 6.0 | 15.0 | 0.00 | 0.00 | 0.00 | 61 | 1018.4 |
| 20260830181636 | 92 | 162 | 7.0 | 15.0 | 0.00 | 0.00 | 0.00 | 61 | 1018.5 |
| 20260830180649 | 92 | 128 | 7.0 | 12.0 | 0.00 | 0.00 | 0.00 | 61 | 1018.6 |
| 20260830180150 | 92 | 208 | 5.0 | 14.0 | 0.00 | 0.00 | 0.00 | 64 | 1018.7 |
| 20260830175649 | 92 | 163 | 4.0 | 14.0 | 0.00 | 0.00 | 0.00 | 63 | 1018.8 |
| 20260830175149 | 92 | 146 | 6.0 | 14.0 | 0.00 | 0.00 | 0.00 | 62 | 1019.0 |
| 20260830174914 | 91 | 168 | 7.0 | 15.0 | 0.00 | 0.00 | 0.00 | 64 | 1019.1 |
| 20260830174149 | 91 | 133 | 6.0 | 15.0 | 0.00 | 0.00 | 0.00 | 62 | 1019.2 |
| 20260830174131 | 91 | 140 | 5.0 | 12.0 | 0.00 | 0.00 | 0.00 | 65 | 1019.2 |
| 20260830173149 | 91 | 153 | 5.0 | 12.0 | 0.00 | 0.00 | 0.00 | 63 | 1019.3 |
| 20260830172914 | 91 | 175 | 5.0 | 12.0 | 0.00 | 0.00 | 0.00 | 62 | 1019.4 |